STARLINK-32683

Last updated on Wed Jan 29 2025 00:02:04 GMT+0000 (Coordinated Universal Time)

1 62445U 24251P 25028.37072286 .00001470 00000+0 34477-4 0 9997 2 62445 53.1604 67.1090 0001707 90.6171 269.5033 15.49330367 5750
UTC large
Height (km)
Speed (km/s)
/
Latitude / Longitude
Inclination (degrees)
Orbital Period (minutes)
Azimuth
Elevation
Range (km)
Doppler Factor

Next 0 passes for location: London (51.5072 / 0.1276)

Sorry there are no passes over London.